Date String (YYYY-MM-DD hh:mm:ss) UTC,Instrument flags,absolute air pressure of the measurement (hPa),sample flow rate (lpm),inlet stack bypass flow (lpm),air temperature of the measurement (°C),ambient temperature measured by the external sensor (°C),aerosol sample conditioner tube jacket temperature (°C),OPC LED temperature (°C),internal box temperature (°C),relative humidity of the measurement (%),span deviation,mass concentration of particles derived from Lorenz-Mie calculation of OPC scattering (μg/m³),mass concentration of particles derived from Lorenz-Mie calculation of OPC scattering (μg/m³),mass concentration of particles derived from Lorenz-Mie calculation of OPC scattering (μg/m³)
DateTimeUTC,F1_M11,P_M11,Q1_M11,Q2_M11,T1_M11,T2_M11,T3_M11,T4_M11,T5_M11,U1_M11,ZSPAN_M11,X0_M11,X2_M11,X1_M11
2023-12-06 21:00:00,SystemResetWarning,0829.0,5.00,000.00,025.5,023.9,000.0,033.7,026.9,13.0,0000.0,0008.04,0001.87,0001.09
2023-12-06 21:01:00,SystemResetWarning,0828.9,5.00,000.00,025.6,024.2,000.0,033.7,027.1,13.0,0000.0,0008.06,0001.96,0001.14
2023-12-06 21:02:00,SystemResetWarning,0829.0,5.00,000.00,025.6,024.4,000.0,033.7,027.2,13.1,0000.0,0008.28,0002.02,0001.20
2023-12-06 21:03:00,SystemResetWarning,0829.0,5.00,000.00,025.7,024.6,000.0,033.7,027.2,13.1,0000.0,0008.20,0002.02,0001.23
2023-12-06 21:04:00,SystemResetWarning,0829.0,5.00,000.00,025.7,024.8,000.0,033.7,027.3,12.9,0000.0,0007.79,0001.98,0001.23
2023-12-06 21:05:00,SystemResetWarning,0829.0,5.00,000.00,025.8,024.9,000.0,033.8,027.4,12.8,0000.0,0007.44,0002.03,0001.24
2023-12-06 21:06:00,SystemResetWarning,0828.9,4.99,000.00,025.8,025.1,000.0,033.8,027.5,12.8,0000.0,0007.28,0002.09,0001.26
2023-12-06 21:07:00,SystemResetWarning,0829.0,5.00,000.00,025.9,025.2,000.0,033.8,027.6,12.8,0000.0,0007.04,0002.17,0001.31
2023-12-06 21:08:00,SystemResetWarning,0829.0,4.99,000.00,025.9,024.8,000.0,033.9,027.6,12.6,0000.0,0007.11,0002.16,0001.34
2023-12-06 21:09:00,SystemResetWarning,0828.9,5.00,000.00,025.9,022.8,000.0,033.8,027.3,12.8,0000.0,0007.54,0002.26,0001.37
2023-12-06 21:10:00,SystemResetWarning,0828.9,5.01,000.00,025.8,021.8,000.0,033.8,027.0,13.0,0000.0,0005.88,0002.38,0001.44
2023-12-06 21:11:00,SystemResetWarning,0828.8,5.01,000.00,025.6,022.0,000.0,033.8,026.7,13.2,0000.0,0005.93,0002.43,0001.47
2023-12-06 21:12:00,SystemResetWarning,0828.8,5.00,000.00,025.5,022.4,000.0,033.7,026.6,13.3,0000.0,0006.96,0002.53,0001.52
2023-12-06 21:13:00,SystemResetWarning,0828.8,5.00,000.00,025.5,022.9,000.0,033.7,026.6,13.3,0000.0,0007.13,0002.61,0001.58
2023-12-06 21:14:00,SystemResetWarning,0828.8,5.00,000.00,025.5,023.3,000.0,033.7,026.8,13.1,0000.0,0007.14,0002.64,0001.61
2023-12-06 21:15:00,SystemResetWarning,0828.8,5.00,000.00,025.5,023.7,000.0,033.7,026.9,13.0,0000.0,0007.50,0002.66,0001.65
2023-12-06 21:16:00,SystemResetWarning,0828.8,5.00,000.00,025.6,024.0,000.0,033.7,027.0,13.0,0000.0,0008.19,0002.64,0001.66
2023-12-06 21:17:00,SystemResetWarning,0828.9,5.00,000.00,025.6,024.2,000.0,033.7,027.1,13.0,0000.0,0008.53,0002.66,0001.66
2023-12-06 21:18:00,SystemResetWarning,0828.9,4.99,000.00,025.6,024.5,000.0,033.7,027.2,13.0,0000.0,0008.58,0002.69,0001.67
2023-12-06 21:19:00,SystemResetWarning,0828.9,4.99,000.00,025.7,024.7,000.0,033.7,027.3,13.0,0000.0,0008.56,0002.78,0001.72
2023-12-06 21:20:00,SystemResetWarning,0828.9,4.99,000.00,025.8,024.8,000.0,033.7,027.4,13.1,0000.0,0008.43,0002.77,0001.79
2023-12-06 21:21:00,SystemResetWarning,0828.9,5.00,000.00,025.8,025.0,000.0,033.8,027.4,13.2,0000.0,0008.58,0002.80,0001.83
2023-12-06 21:22:00,SystemResetWarning,0828.9,5.00,000.00,025.9,025.0,000.0,033.8,027.5,13.2,0000.0,0009.04,0002.84,0001.87
2023-12-06 21:23:00,SystemResetWarning,0828.9,5.00,000.00,025.9,023.6,000.0,033.8,027.4,13.2,0000.0,0008.62,0002.75,0001.87
2023-12-06 21:24:00,SystemResetWarning,0828.8,5.01,000.00,025.8,022.8,000.0,033.8,027.2,13.3,0000.0,0008.44,0002.73,0001.87
2023-12-06 21:25:00,SystemResetWarning,0828.8,5.01,000.00,025.7,022.9,000.0,033.8,026.9,13.4,0000.0,0008.45,0002.79,0001.89
2023-12-06 21:26:00,SystemResetWarning,0828.8,5.00,000.00,025.6,023.2,000.0,033.7,026.8,13.6,0000.0,0008.90,0002.85,0001.90
2023-12-06 21:27:00,SystemResetWarning,0828.8,4.99,000.00,025.6,023.5,000.0,033.7,026.9,13.7,0000.0,0009.26,0002.93,0001.94
2023-12-06 21:28:00,SystemResetWarning,0828.9,5.00,000.00,025.6,023.8,000.0,033.7,027.0,13.4,0000.0,0009.51,0002.97,0001.97
2023-12-06 21:29:00,SystemResetWarning,0828.9,5.00,000.00,025.7,024.1,000.0,033.7,027.1,13.3,0000.0,0010.43,0003.02,0002.01
2023-12-06 21:30:00,SystemResetWarning,0828.9,5.00,000.00,025.7,024.4,000.0,033.8,027.2,13.2,0000.0,0011.20,0003.04,0002.05
2023-12-06 21:31:00,SystemResetWarning,0829.0,5.00,000.00,025.8,024.6,000.0,033.8,027.3,13.1,0000.0,0011.26,0003.13,0002.10
2023-12-06 21:32:00,SystemResetWarning,0828.9,5.01,000.00,025.8,024.8,000.0,033.8,027.4,13.2,0000.0,0010.94,0003.12,0002.13
2023-12-06 21:33:00,SystemResetWarning,0828.9,4.99,000.00,025.9,024.6,000.0,033.8,027.5,13.3,0000.0,0010.50,0003.12,0002.17
2023-12-06 21:34:00,SystemResetWarning,0828.8,4.99,000.00,025.8,022.9,000.0,033.8,027.2,13.5,0000.0,0010.49,0003.20,0002.25
2023-12-06 21:35:00,SystemResetWarning,0828.8,5.01,000.00,025.7,021.9,000.0,033.8,027.0,13.7,0000.0,0010.75,0003.27,0002.35
2023-12-06 21:36:00,SystemResetWarning,0828.8,5.01,000.00,025.6,022.1,000.0,033.7,026.7,13.5,0000.0,0011.53,0003.33,0002.44
2023-12-06 21:37:00,SystemResetWarning,0828.8,5.00,000.00,025.5,022.5,000.0,033.7,026.6,13.5,0000.0,0010.80,0003.35,0002.52
2023-12-06 21:38:00,SystemResetWarning,0828.8,4.99,000.00,025.5,023.0,000.0,033.7,026.6,13.6,0000.0,0009.82,0003.37,0002.59
2023-12-06 21:39:00,SystemResetWarning,0828.8,5.00,000.00,025.5,023.4,000.0,033.7,026.8,13.6,0000.0,0009.56,0003.40,0002.65
2023-12-06 21:40:00,SystemResetWarning,0828.8,5.00,000.00,025.5,023.7,000.0,033.7,026.9,13.7,0000.0,0008.68,0003.41,0002.68
2023-12-06 21:41:00,SystemResetWarning,0828.8,5.00,000.00,025.6,024.0,000.0,033.7,027.1,13.6,0000.0,0007.99,0003.41,0002.68
2023-12-06 21:42:00,SystemResetWarning,0828.8,5.00,000.00,025.6,024.3,000.0,033.7,027.2,13.5,0000.0,0007.75,0003.39,0002.68
2023-12-06 21:43:00,SystemResetWarning,0828.8,5.01,000.00,025.7,024.5,000.0,033.7,027.3,13.5,0000.0,0007.69,0003.38,0002.68
2023-12-06 21:44:00,SystemResetWarning,0828.7,4.99,000.00,025.7,024.8,000.0,033.7,027.4,13.3,0000.0,0007.79,0003.44,0002.71
2023-12-06 21:45:00,SystemResetWarning,0828.8,4.99,000.00,025.8,024.9,000.0,033.7,027.5,13.2,0000.0,0007.95,0003.47,0002.72
2023-12-06 21:46:00,SystemResetWarning,0828.8,4.99,000.00,025.8,024.4,000.0,033.8,027.5,13.1,0000.0,0007.98,0003.41,0002.71
2023-12-06 21:47:00,SystemResetWarning,0828.8,5.00,000.00,025.7,022.6,000.0,033.7,027.1,13.3,0000.0,0007.51,0003.39,0002.70
2023-12-06 21:48:00,SystemResetWarning,0828.7,5.00,000.00,025.6,021.9,000.0,033.7,026.9,13.3,0000.0,0007.09,0003.39,0002.70
2023-12-06 21:49:00,SystemResetWarning,0828.8,5.01,000.00,025.5,022.2,000.0,033.7,026.6,13.4,0000.0,0007.13,0003.41,0002.71
2023-12-06 21:50:00,SystemResetWarning,0828.8,5.01,000.00,025.4,022.6,000.0,033.6,026.5,13.4,0000.0,0007.16,0003.41,0002.71
2023-12-06 21:51:00,SystemResetWarning,0828.8,4.99,000.00,025.4,023.0,000.0,033.6,026.7,13.3,0000.0,0007.87,0003.42,0002.75
2023-12-06 21:52:00,SystemResetWarning,0828.7,4.99,000.00,025.4,023.4,000.0,033.6,026.8,13.3,0000.0,0008.20,0003.45,0002.79
2023-12-06 21:53:00,SystemResetWarning,0828.8,5.00,000.00,025.5,023.8,000.0,033.6,027.0,13.3,0000.0,0009.07,0003.48,0002.83
2023-12-06 21:54:00,SystemResetWarning,0828.8,5.01,000.00,025.5,024.1,000.0,033.6,027.1,13.3,0000.0,0009.35,0003.54,0002.83
2023-12-06 21:55:00,SystemResetWarning,0828.8,5.00,000.00,025.6,024.4,000.0,033.6,027.2,13.3,0000.0,0009.32,0003.51,0002.80
2023-12-06 21:56:00,SystemResetWarning,0828.8,4.99,000.00,025.7,024.6,000.0,033.6,027.4,13.1,0000.0,0009.10,0003.48,0002.76
2023-12-06 21:57:00,SystemResetWarning,0828.8,5.00,000.00,025.8,024.8,000.0,033.7,027.4,13.3,0000.0,0009.00,0003.50,0002.75
2023-12-06 21:58:00,SystemResetWarning,0828.8,4.99,000.00,025.8,024.7,000.0,033.7,027.5,13.5,0000.0,0009.81,0003.50,0002.73
2023-12-06 21:59:00,SystemResetWarning,0828.8,4.99,000.00,025.8,022.9,000.0,033.7,027.3,13.5,0000.0,0010.67,0003.47,0002.69
